Terminal Aerodrome Forecast
Issued by NWS Milwaukee/Sullivan, WI

Home | Current Version | Previous Version | Text Only | Print | Product List | Glossary On
Versions: 1 2 3 4 5 6 7 8 9 10 11 12 13 14 15 16 17 18 19 20 21 22 23 24 25 26 27 28 29 30 31 32 33 34 35 36 37 38 39 40 41 42 43 44 45 46 47 48 49 50
000
FTUS43 KMKX 222347
TAFMSN
TAF
KMSN 222347Z 2300/2324 09006KT P6SM FEW025 BKN200
     FM230300 VRB03KT 3SM BR BKN200
     FM230800 VRB03KT 1SM BR BKN003
     FM231400 09004KT 4SM BR BKN008
     FM231600 09006KT P6SM BKN020
     FM231800 10007KT P6SM BKN040=

USA.gov is the U.S. government's official web portal to all federal, state and local government web resources and services.